Year,Month,Day,Hour,Minute,Value (Times are PST for temperature in C)
2012,07,08,00,00,16.30
2012,07,08,00,01,16.30
2012,07,08,00,02,16.30
2012,07,08,00,03,16.30
2012,07,08,00,04,16.30
2012,07,08,00,05,16.30
2012,07,08,00,06,16.30
2012,07,08,00,07,16.20
2012,07,08,00,08,16.20
2012,07,08,00,09,16.20
2012,07,08,00,10,16.20
2012,07,08,00,11,16.20
2012,07,08,00,12,16.10
2012,07,08,00,13,16.10
2012,07,08,00,14,16.10
2012,07,08,00,15,16.10
2012,07,08,00,16,16.00
2012,07,08,00,17,16.00
2012,07,08,00,18,16.00
2012,07,08,00,19,16.00
2012,07,08,00,20,15.90
2012,07,08,00,21,15.90
2012,07,08,00,22,15.90
2012,07,08,00,23,15.90
2012,07,08,00,24,15.80
2012,07,08,00,25,15.80
2012,07,08,00,26,15.80
2012,07,08,00,27,15.80
2012,07,08,00,28,15.70
2012,07,08,00,29,15.70
2012,07,08,00,30,15.70
2012,07,08,00,31,15.70
2012,07,08,00,32,15.70
2012,07,08,00,33,15.70
2012,07,08,00,34,15.70
2012,07,08,00,35,15.60
2012,07,08,00,36,15.60
2012,07,08,00,37,15.60
2012,07,08,00,38,15.60
2012,07,08,00,39,15.60
2012,07,08,00,40,15.50
2012,07,08,00,41,15.50
2012,07,08,00,42,15.50
2012,07,08,00,43,15.40
2012,07,08,00,44,15.40
2012,07,08,00,45,15.40
2012,07,08,00,46,15.40
2012,07,08,00,47,15.40
2012,07,08,00,48,15.30
2012,07,08,00,49,15.30
2012,07,08,00,50,15.30
2012,07,08,00,51,15.30
2012,07,08,00,52,15.30
2012,07,08,00,53,15.30
2012,07,08,00,54,15.30
2012,07,08,00,55,15.20
2012,07,08,00,56,15.20
2012,07,08,00,57,15.20
2012,07,08,00,58,15.20
2012,07,08,00,59,15.20
2012,07,08,01,00,15.20
2012,07,08,01,01,15.10
2012,07,08,01,02,15.10
2012,07,08,01,03,15.10
2012,07,08,01,04,15.10
2012,07,08,01,05,15.10
2012,07,08,01,06,15.10
2012,07,08,01,07,15.00
2012,07,08,01,08,15.00
2012,07,08,01,09,15.00
2012,07,08,01,10,14.90
2012,07,08,01,11,14.90
2012,07,08,01,12,14.90
2012,07,08,01,13,14.90
2012,07,08,01,14,14.90
2012,07,08,01,15,14.90
2012,07,08,01,16,14.90
2012,07,08,01,17,14.90
2012,07,08,01,18,14.80
2012,07,08,01,19,14.80
2012,07,08,01,20,14.80
2012,07,08,01,21,14.80
2012,07,08,01,22,14.80
2012,07,08,01,23,14.80
2012,07,08,01,24,14.80
2012,07,08,01,25,14.70
2012,07,08,01,26,14.70
2012,07,08,01,27,14.70
2012,07,08,01,28,14.70
2012,07,08,01,29,14.70
2012,07,08,01,30,14.70
2012,07,08,01,31,14.70
2012,07,08,01,32,14.60
2012,07,08,01,33,14.60
2012,07,08,01,34,14.60
2012,07,08,01,35,14.60
2012,07,08,01,36,14.60
2012,07,08,01,37,14.60
2012,07,08,01,38,14.50
2012,07,08,01,39,14.50
2012,07,08,01,40,14.50
2012,07,08,01,41,14.50
2012,07,08,01,42,14.40
2012,07,08,01,43,14.40
2012,07,08,01,44,14.40
2012,07,08,01,45,14.40
2012,07,08,01,46,14.30
2012,07,08,01,47,14.30
2012,07,08,01,48,14.30
2012,07,08,01,49,14.30
2012,07,08,01,50,14.30
2012,07,08,01,51,14.30
2012,07,08,01,52,14.20
2012,07,08,01,53,14.20
2012,07,08,01,54,14.20
2012,07,08,01,55,14.20
2012,07,08,01,56,14.20
2012,07,08,01,57,14.10
2012,07,08,01,58,14.10
2012,07,08,01,59,14.10
2012,07,08,02,00,14.10
2012,07,08,02,01,14.10
2012,07,08,02,02,14.10
2012,07,08,02,03,14.00
2012,07,08,02,04,14.00
2012,07,08,02,05,14.00
2012,07,08,02,06,14.00
2012,07,08,02,07,14.00
2012,07,08,02,08,14.00
2012,07,08,02,09,14.00
2012,07,08,02,10,14.00
2012,07,08,02,11,14.00
2012,07,08,02,12,14.00
2012,07,08,02,13,14.00
2012,07,08,02,14,13.90
2012,07,08,02,15,13.90
2012,07,08,02,16,13.90
2012,07,08,02,17,13.90
2012,07,08,02,18,13.90
2012,07,08,02,19,13.90
2012,07,08,02,20,13.90
2012,07,08,02,21,13.80
2012,07,08,02,22,13.80
2012,07,08,02,23,13.80
2012,07,08,02,24,13.80
2012,07,08,02,25,13.80
2012,07,08,02,26,13.70
2012,07,08,02,27,13.70
2012,07,08,02,28,13.70
2012,07,08,02,29,13.60
2012,07,08,02,30,13.60
2012,07,08,02,31,13.60
2012,07,08,02,32,13.60
2012,07,08,02,33,13.50
2012,07,08,02,34,13.50
2012,07,08,02,35,13.50
2012,07,08,02,36,13.50
2012,07,08,02,37,13.50
2012,07,08,02,38,13.40
2012,07,08,02,39,13.40
2012,07,08,02,40,13.40
2012,07,08,02,41,13.40
2012,07,08,02,42,13.40
2012,07,08,02,43,13.40
2012,07,08,02,44,13.40
2012,07,08,02,45,13.30
2012,07,08,02,46,13.30
2012,07,08,02,47,13.30
2012,07,08,02,48,13.30
2012,07,08,02,49,13.30
2012,07,08,02,50,13.30
2012,07,08,02,51,13.30
2012,07,08,02,52,13.20
2012,07,08,02,53,13.20
2012,07,08,02,54,13.20
2012,07,08,02,55,13.20
2012,07,08,02,56,13.20
2012,07,08,02,57,13.20
2012,07,08,02,58,13.20
2012,07,08,02,59,13.10
2012,07,08,03,00,13.10
2012,07,08,03,01,13.10
2012,07,08,03,02,13.10
2012,07,08,03,03,13.10
2012,07,08,03,04,13.10
2012,07,08,03,05,13.00
2012,07,08,03,06,13.00
2012,07,08,03,07,13.00
2012,07,08,03,08,13.00
2012,07,08,03,09,13.00
2012,07,08,03,10,13.00
2012,07,08,03,11,12.90
2012,07,08,03,12,12.90
2012,07,08,03,13,12.90
2012,07,08,03,14,12.90
2012,07,08,03,15,12.90
2012,07,08,03,16,12.90
2012,07,08,03,17,12.90
2012,07,08,03,18,12.90
2012,07,08,03,19,12.90
2012,07,08,03,20,12.90
2012,07,08,03,21,12.90
2012,07,08,03,22,12.90
2012,07,08,03,23,12.90
2012,07,08,03,24,12.90
2012,07,08,03,25,12.90
2012,07,08,03,26,12.90
2012,07,08,03,27,12.90
2012,07,08,03,28,12.90
2012,07,08,03,29,12.90
2012,07,08,03,30,12.90
2012,07,08,03,31,12.90
2012,07,08,03,32,12.90
2012,07,08,03,33,12.90
2012,07,08,03,34,12.90
2012,07,08,03,35,12.90
2012,07,08,03,36,12.90
2012,07,08,03,37,12.90
2012,07,08,03,38,12.80
2012,07,08,03,39,12.80
2012,07,08,03,40,12.80
2012,07,08,03,41,12.80
2012,07,08,03,42,12.80
2012,07,08,03,43,12.80
2012,07,08,03,44,12.80
2012,07,08,03,45,12.80
2012,07,08,03,46,12.70
2012,07,08,03,47,12.70
2012,07,08,03,48,12.70
2012,07,08,03,49,12.70
2012,07,08,03,50,12.70
2012,07,08,03,51,12.70
2012,07,08,03,52,12.70
2012,07,08,03,53,12.70
2012,07,08,03,54,12.70
2012,07,08,03,55,12.60
2012,07,08,03,56,12.60
2012,07,08,03,57,12.60
2012,07,08,03,58,12.60
2012,07,08,03,59,12.50
2012,07,08,04,00,12.50
2012,07,08,04,01,12.50
2012,07,08,04,02,12.50
2012,07,08,04,03,12.50
2012,07,08,04,04,12.50
2012,07,08,04,05,12.50
2012,07,08,04,06,12.40
2012,07,08,04,07,12.40
2012,07,08,04,08,12.40
2012,07,08,04,09,12.40
2012,07,08,04,10,12.40
2012,07,08,04,11,12.40
2012,07,08,04,12,12.40
2012,07,08,04,13,12.40
2012,07,08,04,14,12.40
2012,07,08,04,15,12.40
2012,07,08,04,16,12.40
2012,07,08,04,17,12.30
2012,07,08,04,18,12.30
2012,07,08,04,19,12.30
2012,07,08,04,20,12.30
2012,07,08,04,21,12.30
2012,07,08,04,22,12.30
2012,07,08,04,23,12.30
2012,07,08,04,24,12.30
2012,07,08,04,25,12.30
2012,07,08,04,26,12.30
2012,07,08,04,27,12.20
2012,07,08,04,28,12.20
2012,07,08,04,29,12.20
2012,07,08,04,30,12.20
2012,07,08,04,31,12.20
2012,07,08,04,32,12.20
2012,07,08,04,33,12.10
2012,07,08,04,34,12.10
2012,07,08,04,35,12.10
2012,07,08,04,36,12.10
2012,07,08,04,37,12.10
2012,07,08,04,38,12.10
2012,07,08,04,39,12.10
2012,07,08,04,40,12.10
2012,07,08,04,41,12.10
2012,07,08,04,42,12.00
2012,07,08,04,43,12.00
2012,07,08,04,44,12.00
2012,07,08,04,45,12.00
2012,07,08,04,46,12.00
2012,07,08,04,47,12.00
2012,07,08,04,48,12.00
2012,07,08,04,49,11.90
2012,07,08,04,50,11.90
2012,07,08,04,51,11.90
2012,07,08,04,52,11.90
2012,07,08,04,53,12.00
2012,07,08,04,54,12.00
2012,07,08,04,55,12.00
2012,07,08,04,56,12.00
2012,07,08,04,57,12.00
2012,07,08,04,58,12.00
2012,07,08,04,59,12.00
2012,07,08,05,00,12.00
2012,07,08,05,01,12.00
2012,07,08,05,02,12.00
2012,07,08,05,03,11.90
2012,07,08,05,04,11.90
2012,07,08,05,05,11.90
2012,07,08,05,06,11.90
2012,07,08,05,07,11.90
2012,07,08,05,08,11.90
2012,07,08,05,09,11.90
2012,07,08,05,10,11.90
2012,07,08,05,11,11.90
2012,07,08,05,12,11.90
2012,07,08,05,13,11.90
2012,07,08,05,14,11.80
2012,07,08,05,15,11.80
2012,07,08,05,16,11.80
2012,07,08,05,17,11.80
2012,07,08,05,18,11.80
2012,07,08,05,19,11.80
2012,07,08,05,20,11.80
2012,07,08,05,21,11.80
2012,07,08,05,22,11.80
2012,07,08,05,23,11.80
2012,07,08,05,24,11.80
2012,07,08,05,25,11.80
2012,07,08,05,26,11.80
2012,07,08,05,27,11.70
2012,07,08,05,28,11.70
2012,07,08,05,29,11.70
2012,07,08,05,30,11.70
2012,07,08,05,31,11.70
2012,07,08,05,32,11.70
2012,07,08,05,33,11.70
2012,07,08,05,34,11.70
2012,07,08,05,35,11.70
2012,07,08,05,36,11.70
2012,07,08,05,37,11.70
2012,07,08,05,38,11.70
2012,07,08,05,39,11.70
2012,07,08,05,40,11.70
2012,07,08,05,41,11.70
2012,07,08,05,42,11.70
2012,07,08,05,43,11.70
2012,07,08,05,44,11.70
2012,07,08,05,45,11.70
2012,07,08,05,46,11.70
2012,07,08,05,47,11.70
2012,07,08,05,48,11.70
2012,07,08,05,49,11.70
2012,07,08,05,50,11.70
2012,07,08,05,51,11.70
2012,07,08,05,52,11.70
2012,07,08,05,53,11.70
2012,07,08,05,54,11.70
2012,07,08,05,55,11.70
2012,07,08,05,56,11.70
2012,07,08,05,57,11.70
2012,07,08,05,58,11.70
2012,07,08,05,59,11.70
2012,07,08,06,00,11.70
2012,07,08,06,01,11.70
2012,07,08,06,02,11.70
2012,07,08,06,03,11.70
2012,07,08,06,04,11.70
2012,07,08,06,05,11.70
2012,07,08,06,06,11.70
2012,07,08,06,07,11.70
2012,07,08,06,08,11.70
2012,07,08,06,09,11.70
2012,07,08,06,10,11.70
2012,07,08,06,11,11.70
2012,07,08,06,12,11.70
2012,07,08,06,13,11.70
2012,07,08,06,14,11.70
2012,07,08,06,15,11.60
2012,07,08,06,16,11.60
2012,07,08,06,17,11.60
2012,07,08,06,18,11.60
2012,07,08,06,19,11.60
2012,07,08,06,20,11.60
2012,07,08,06,21,11.60
2012,07,08,06,22,11.60
2012,07,08,06,23,11.70
2012,07,08,06,24,11.70
2012,07,08,06,25,11.70
2012,07,08,06,26,11.70
2012,07,08,06,27,11.70
2012,07,08,06,28,11.70
2012,07,08,06,29,11.70
2012,07,08,06,30,11.70
2012,07,08,06,31,11.70
2012,07,08,06,32,11.70
2012,07,08,06,33,11.70
2012,07,08,06,34,11.70
2012,07,08,06,35,11.70
2012,07,08,06,36,11.70
2012,07,08,06,37,11.80
2012,07,08,06,38,11.80
2012,07,08,06,39,11.80
2012,07,08,06,40,11.80
2012,07,08,06,41,11.80
2012,07,08,06,42,11.90
2012,07,08,06,43,11.90
2012,07,08,06,44,11.90
2012,07,08,06,45,11.90
2012,07,08,06,46,12.00
2012,07,08,06,47,12.00
2012,07,08,06,48,12.00
2012,07,08,06,49,12.10
2012,07,08,06,50,12.10
2012,07,08,06,51,12.10
2012,07,08,06,52,12.20
2012,07,08,06,53,12.20
2012,07,08,06,54,12.20
2012,07,08,06,55,12.20
2012,07,08,06,56,12.30
2012,07,08,06,57,12.30
2012,07,08,06,58,12.30
2012,07,08,06,59,12.30
2012,07,08,07,00,12.30
2012,07,08,07,01,12.40
2012,07,08,07,02,12.40
2012,07,08,07,03,12.40
2012,07,08,07,04,12.40
2012,07,08,07,05,12.50
2012,07,08,07,06,12.50
2012,07,08,07,07,12.50
2012,07,08,07,08,12.60
2012,07,08,07,09,12.60
2012,07,08,07,10,12.60
2012,07,08,07,11,12.60
2012,07,08,07,12,12.60
2012,07,08,07,13,12.60
2012,07,08,07,14,12.60
2012,07,08,07,15,12.70
2012,07,08,07,16,12.70
2012,07,08,07,17,12.70
2012,07,08,07,18,12.70
2012,07,08,07,19,12.70
2012,07,08,07,20,12.70
2012,07,08,07,21,12.70
2012,07,08,07,22,12.80
2012,07,08,07,23,12.80
2012,07,08,07,24,12.80
2012,07,08,07,25,12.90
2012,07,08,07,26,12.90
2012,07,08,07,27,13.00
2012,07,08,07,28,13.00
2012,07,08,07,29,13.10
2012,07,08,07,30,13.10
2012,07,08,07,31,13.20
2012,07,08,07,32,13.20
2012,07,08,07,33,13.30
2012,07,08,07,34,13.30
2012,07,08,07,35,13.40
2012,07,08,07,36,13.40
2012,07,08,07,37,13.50
2012,07,08,07,38,13.50
2012,07,08,07,39,13.60
2012,07,08,07,40,13.60
2012,07,08,07,41,13.70
2012,07,08,07,42,13.80
2012,07,08,07,43,13.80
2012,07,08,07,44,13.80
2012,07,08,07,45,13.90
2012,07,08,07,46,14.00
2012,07,08,07,47,14.00
2012,07,08,07,48,14.10
2012,07,08,07,49,14.20
2012,07,08,07,50,14.20
2012,07,08,07,51,14.30
2012,07,08,07,52,14.40
2012,07,08,07,53,14.40
2012,07,08,07,54,14.50
2012,07,08,07,55,14.60
2012,07,08,07,56,14.60
2012,07,08,07,57,14.70
2012,07,08,07,58,14.70
2012,07,08,07,59,14.70
2012,07,08,08,00,14.70
2012,07,08,08,01,14.80
2012,07,08,08,02,14.80
2012,07,08,08,03,14.80
2012,07,08,08,04,14.90
2012,07,08,08,05,14.90
2012,07,08,08,06,14.90
2012,07,08,08,07,14.90
2012,07,08,08,08,14.90
2012,07,08,08,09,15.00
2012,07,08,08,10,15.00
2012,07,08,08,11,15.00
2012,07,08,08,12,15.10
2012,07,08,08,13,15.10
2012,07,08,08,14,15.20
2012,07,08,08,15,15.20
2012,07,08,08,16,15.20
2012,07,08,08,17,15.30
2012,07,08,08,18,15.30
2012,07,08,08,19,15.30
2012,07,08,08,20,15.30
2012,07,08,08,21,15.30
2012,07,08,08,22,15.40
2012,07,08,08,23,15.40
2012,07,08,08,24,15.50
2012,07,08,08,25,15.50
2012,07,08,08,26,15.60
2012,07,08,08,27,15.70
2012,07,08,08,28,15.70
2012,07,08,08,29,15.70
2012,07,08,08,30,15.80
2012,07,08,08,31,15.80
2012,07,08,08,32,15.90
2012,07,08,08,33,15.90
2012,07,08,08,34,16.00
2012,07,08,08,35,16.00
2012,07,08,08,36,16.10
2012,07,08,08,37,16.20
2012,07,08,08,38,16.30
2012,07,08,08,39,16.30
2012,07,08,08,40,16.30
2012,07,08,08,41,16.40
2012,07,08,08,42,16.40
2012,07,08,08,43,16.50
2012,07,08,08,44,16.50
2012,07,08,08,45,16.60
2012,07,08,08,46,16.60
2012,07,08,08,47,16.70
2012,07,08,08,48,16.70
2012,07,08,08,49,16.70
2012,07,08,08,50,16.80
2012,07,08,08,51,16.80
2012,07,08,08,52,16.80
2012,07,08,08,53,16.90
2012,07,08,08,54,17.00
2012,07,08,08,55,17.10
2012,07,08,08,56,17.20
2012,07,08,08,57,17.30
2012,07,08,08,58,17.30
2012,07,08,08,59,17.40
2012,07,08,09,00,17.50
2012,07,08,09,01,17.50
2012,07,08,09,02,17.60
2012,07,08,09,03,17.70
2012,07,08,09,04,17.70
2012,07,08,09,05,17.70
2012,07,08,09,06,17.80
2012,07,08,09,07,17.80
2012,07,08,09,08,17.90
2012,07,08,09,09,18.00
2012,07,08,09,10,18.00
2012,07,08,09,11,18.10
2012,07,08,09,12,18.10
2012,07,08,09,13,18.20
2012,07,08,09,14,18.20
2012,07,08,09,15,18.30
2012,07,08,09,16,18.30
2012,07,08,09,17,18.30
2012,07,08,09,18,18.40
2012,07,08,09,19,18.40
2012,07,08,09,20,18.40
2012,07,08,09,21,18.50
2012,07,08,09,22,18.50
2012,07,08,09,23,18.50
2012,07,08,09,24,18.50
2012,07,08,09,25,18.50
2012,07,08,09,26,18.50
2012,07,08,09,27,18.50
2012,07,08,09,28,18.50
2012,07,08,09,29,18.50
2012,07,08,09,30,18.50
2012,07,08,09,31,18.50
2012,07,08,09,32,18.50
2012,07,08,09,33,18.60
2012,07,08,09,34,18.60
2012,07,08,09,35,18.60
2012,07,08,09,36,18.60
2012,07,08,09,37,18.60
2012,07,08,09,38,18.70
2012,07,08,09,39,18.70
2012,07,08,09,40,18.70
2012,07,08,09,41,18.80
2012,07,08,09,42,18.80
2012,07,08,09,43,18.90
2012,07,08,09,44,19.00
2012,07,08,09,45,19.00
2012,07,08,09,46,19.00
2012,07,08,09,47,19.10
2012,07,08,09,48,19.10
2012,07,08,09,49,19.10
2012,07,08,09,50,19.10
2012,07,08,09,51,19.20
2012,07,08,09,52,19.30
2012,07,08,09,53,19.40
2012,07,08,09,54,19.50
2012,07,08,09,55,19.60
2012,07,08,09,56,19.70
2012,07,08,09,57,19.70
2012,07,08,09,58,19.80
2012,07,08,09,59,19.80
2012,07,08,10,00,19.80
2012,07,08,10,01,19.80
2012,07,08,10,02,19.90
2012,07,08,10,03,19.90
2012,07,08,10,04,20.00
2012,07,08,10,05,20.00
2012,07,08,10,06,20.00
2012,07,08,10,07,20.10
2012,07,08,10,08,20.20
2012,07,08,10,09,20.20
2012,07,08,10,10,20.30
2012,07,08,10,11,20.40
2012,07,08,10,12,20.40
2012,07,08,10,13,20.40
2012,07,08,10,14,20.40
2012,07,08,10,15,20.40
2012,07,08,10,16,20.40
2012,07,08,10,17,20.40
2012,07,08,10,18,20.40
2012,07,08,10,19,20.40
2012,07,08,10,20,20.40
2012,07,08,10,21,20.50
2012,07,08,10,22,20.50
2012,07,08,10,23,20.60
2012,07,08,10,24,20.70
2012,07,08,10,25,20.70
2012,07,08,10,26,20.70
2012,07,08,10,27,20.80
2012,07,08,10,28,20.80
2012,07,08,10,29,20.90
2012,07,08,10,30,20.90
2012,07,08,10,31,21.00
2012,07,08,10,32,21.10
2012,07,08,10,33,21.20
2012,07,08,10,34,21.30
2012,07,08,10,35,21.30
2012,07,08,10,36,21.30
2012,07,08,10,37,21.30
2012,07,08,10,38,21.30
2012,07,08,10,39,21.30
2012,07,08,10,40,21.30
2012,07,08,10,41,21.30
2012,07,08,10,42,21.30
2012,07,08,10,43,21.30
2012,07,08,10,44,21.30
2012,07,08,10,45,21.30
2012,07,08,10,46,21.30
2012,07,08,10,47,21.40
2012,07,08,10,48,21.40
2012,07,08,10,49,21.40
2012,07,08,10,50,21.40
2012,07,08,10,51,21.50
2012,07,08,10,52,21.50
2012,07,08,10,53,21.50
2012,07,08,10,54,21.60
2012,07,08,10,55,21.60
2012,07,08,10,56,21.70
2012,07,08,10,57,21.70
2012,07,08,10,58,21.80
2012,07,08,10,59,21.80
2012,07,08,11,00,21.80
2012,07,08,11,01,21.80
2012,07,08,11,02,21.80
2012,07,08,11,03,21.90
2012,07,08,11,04,21.90
2012,07,08,11,05,21.80
2012,07,08,11,06,21.90
2012,07,08,11,07,21.90
2012,07,08,11,08,22.00
2012,07,08,11,09,22.10
2012,07,08,11,10,22.10
2012,07,08,11,11,22.20
2012,07,08,11,12,22.20
2012,07,08,11,13,22.20
2012,07,08,11,14,22.20
2012,07,08,11,15,22.30
2012,07,08,11,16,22.30
2012,07,08,11,17,22.30
2012,07,08,11,18,22.50
2012,07,08,11,19,22.60
2012,07,08,11,20,22.70
2012,07,08,11,21,22.90
2012,07,08,11,22,23.00
2012,07,08,11,23,23.00
2012,07,08,11,24,23.10
2012,07,08,11,25,23.10
2012,07,08,11,26,23.10
2012,07,08,11,27,23.10
2012,07,08,11,28,23.00
2012,07,08,11,29,23.00
2012,07,08,11,30,23.10
2012,07,08,11,31,23.10
2012,07,08,11,32,23.30
2012,07,08,11,33,23.40
2012,07,08,11,34,23.50
2012,07,08,11,35,23.60
2012,07,08,11,36,23.70
2012,07,08,11,37,23.80
2012,07,08,11,38,23.80
2012,07,08,11,39,23.90
2012,07,08,11,40,24.00
2012,07,08,11,41,24.10
2012,07,08,11,42,24.20
2012,07,08,11,43,24.20
2012,07,08,11,44,24.20
2012,07,08,11,45,24.20
2012,07,08,11,46,24.20
2012,07,08,11,47,24.30
2012,07,08,11,48,24.30
2012,07,08,11,49,24.40
2012,07,08,11,50,24.40
2012,07,08,11,51,24.50
2012,07,08,11,52,24.40
2012,07,08,11,53,24.40
2012,07,08,11,54,24.50
2012,07,08,11,55,24.50
2012,07,08,11,56,24.50
2012,07,08,11,57,24.50
2012,07,08,11,58,24.50
2012,07,08,11,59,24.60
2012,07,08,12,00,24.60
2012,07,08,12,01,24.70
2012,07,08,12,02,24.80
2012,07,08,12,03,24.80
2012,07,08,12,04,24.90
2012,07,08,12,05,24.90
2012,07,08,12,06,25.00
2012,07,08,12,07,25.00
2012,07,08,12,08,25.00
2012,07,08,12,09,25.00
2012,07,08,12,10,25.10
2012,07,08,12,11,25.10
2012,07,08,12,12,25.10
2012,07,08,12,13,25.10
2012,07,08,12,14,25.00
2012,07,08,12,15,25.00
2012,07,08,12,16,25.00
2012,07,08,12,17,24.90
2012,07,08,12,18,24.90
2012,07,08,12,19,24.90
2012,07,08,12,20,24.90
2012,07,08,12,21,25.00
2012,07,08,12,22,25.10
2012,07,08,12,23,25.20
2012,07,08,12,24,25.30
2012,07,08,12,25,25.30
2012,07,08,12,26,25.40
2012,07,08,12,27,25.40
2012,07,08,12,28,25.40
2012,07,08,12,29,25.50
2012,07,08,12,30,25.50
2012,07,08,12,31,25.50
2012,07,08,12,32,25.60
2012,07,08,12,33,25.60
2012,07,08,12,34,25.60
2012,07,08,12,35,25.60
2012,07,08,12,36,25.70
2012,07,08,12,37,25.70
2012,07,08,12,38,25.80
2012,07,08,12,39,25.80
2012,07,08,12,40,25.80
2012,07,08,12,41,25.90
2012,07,08,12,42,26.00
2012,07,08,12,43,26.00
2012,07,08,12,44,26.00
2012,07,08,12,45,26.10
2012,07,08,12,46,26.10
2012,07,08,12,47,26.10
2012,07,08,12,48,26.20
2012,07,08,12,49,26.20
2012,07,08,12,50,26.20
2012,07,08,12,51,26.20
2012,07,08,12,52,26.20
2012,07,08,12,53,26.20
2012,07,08,12,54,26.20
2012,07,08,12,55,26.20
2012,07,08,12,56,26.30
2012,07,08,12,57,26.40
2012,07,08,12,58,26.50
2012,07,08,12,59,26.50
2012,07,08,13,00,26.60
2012,07,08,13,01,26.50
2012,07,08,13,02,26.50
2012,07,08,13,03,26.40
2012,07,08,13,04,26.40
2012,07,08,13,05,26.40
2012,07,08,13,06,26.40
2012,07,08,13,07,26.40
2012,07,08,13,08,26.50
2012,07,08,13,09,26.60
2012,07,08,13,10,26.60
2012,07,08,13,11,26.70
2012,07,08,13,12,26.70
2012,07,08,13,13,26.60
2012,07,08,13,14,26.60
2012,07,08,13,15,26.60
2012,07,08,13,16,26.60
2012,07,08,13,17,26.70
2012,07,08,13,18,26.70
2012,07,08,13,19,26.70
2012,07,08,13,20,26.70
2012,07,08,13,21,26.60
2012,07,08,13,22,26.60
2012,07,08,13,23,26.50
2012,07,08,13,24,26.50
2012,07,08,13,25,26.60
2012,07,08,13,26,26.60
2012,07,08,13,27,26.60
2012,07,08,13,28,26.60
2012,07,08,13,29,26.60
2012,07,08,13,30,26.60
2012,07,08,13,31,26.60
2012,07,08,13,32,26.60
2012,07,08,13,33,26.60
2012,07,08,13,34,26.60
2012,07,08,13,35,26.50
2012,07,08,13,36,26.50
2012,07,08,13,37,26.40
2012,07,08,13,38,26.40
2012,07,08,13,39,26.40
2012,07,08,13,40,26.50
2012,07,08,13,41,26.50
2012,07,08,13,42,26.60
2012,07,08,13,43,26.60
2012,07,08,13,44,26.60
2012,07,08,13,45,26.60
2012,07,08,13,46,26.60
2012,07,08,13,47,26.50
2012,07,08,13,48,26.50
2012,07,08,13,49,26.50
2012,07,08,13,50,26.60
2012,07,08,13,51,26.70
2012,07,08,13,52,26.70
2012,07,08,13,53,26.80
2012,07,08,13,54,26.80
2012,07,08,13,55,26.80
2012,07,08,13,56,26.80
2012,07,08,13,57,26.80
2012,07,08,13,58,26.70
2012,07,08,13,59,26.70
2012,07,08,14,00,26.70
2012,07,08,14,01,26.80
2012,07,08,14,02,26.80
2012,07,08,14,03,26.80
2012,07,08,14,04,26.80
2012,07,08,14,05,26.80
2012,07,08,14,06,26.80
2012,07,08,14,07,26.80
2012,07,08,14,08,26.90
2012,07,08,14,09,26.90
2012,07,08,14,10,27.00
2012,07,08,14,11,27.00
2012,07,08,14,12,27.00
2012,07,08,14,13,27.10
2012,07,08,14,14,27.10
2012,07,08,14,15,27.20
2012,07,08,14,16,27.20
2012,07,08,14,17,27.20
2012,07,08,14,18,27.20
2012,07,08,14,19,27.10
2012,07,08,14,20,27.10
2012,07,08,14,21,27.10
2012,07,08,14,22,27.10
2012,07,08,14,23,27.10
2012,07,08,14,24,27.20
2012,07,08,14,25,27.20
2012,07,08,14,26,27.30
2012,07,08,14,27,27.40
2012,07,08,14,28,27.50
2012,07,08,14,29,27.50
2012,07,08,14,30,27.50
2012,07,08,14,31,27.50
2012,07,08,14,32,27.50
2012,07,08,14,33,27.30
2012,07,08,14,34,27.20
2012,07,08,14,35,27.10
2012,07,08,14,36,27.10
2012,07,08,14,37,27.20
2012,07,08,14,38,27.20
2012,07,08,14,39,27.30
2012,07,08,14,40,27.30
2012,07,08,14,41,27.30
2012,07,08,14,42,27.30
2012,07,08,14,43,27.30
2012,07,08,14,44,27.40
2012,07,08,14,45,27.40
2012,07,08,14,46,27.50
2012,07,08,14,47,27.50
2012,07,08,14,48,27.60
2012,07,08,14,49,27.70
2012,07,08,14,50,27.70
2012,07,08,14,51,27.70
2012,07,08,14,52,27.70
2012,07,08,14,53,27.70
2012,07,08,14,54,27.70
2012,07,08,14,55,27.80
2012,07,08,14,56,27.80
2012,07,08,14,57,27.80
2012,07,08,14,58,27.80
2012,07,08,14,59,27.80
2012,07,08,15,00,27.90
2012,07,08,15,01,27.90
2012,07,08,15,02,27.90
2012,07,08,15,03,27.90
2012,07,08,15,04,27.90
2012,07,08,15,05,27.90
2012,07,08,15,06,27.90
2012,07,08,15,07,27.90
2012,07,08,15,08,27.90
2012,07,08,15,09,27.90
2012,07,08,15,10,27.80
2012,07,08,15,11,27.70
2012,07,08,15,12,27.80
2012,07,08,15,13,27.80
2012,07,08,15,14,27.80
2012,07,08,15,15,27.90
2012,07,08,15,16,28.00
2012,07,08,15,17,28.10
2012,07,08,15,18,28.20
2012,07,08,15,19,28.30
2012,07,08,15,20,28.40
2012,07,08,15,21,28.50
2012,07,08,15,22,28.70
2012,07,08,15,23,28.80
2012,07,08,15,24,28.90
2012,07,08,15,25,28.90
2012,07,08,15,26,28.90
2012,07,08,15,27,28.90
2012,07,08,15,28,28.90
2012,07,08,15,29,28.90
2012,07,08,15,30,28.90
2012,07,08,15,31,28.90
2012,07,08,15,32,28.90
2012,07,08,15,33,28.90
2012,07,08,15,34,28.80
2012,07,08,15,35,28.80
2012,07,08,15,36,28.90
2012,07,08,15,37,28.90
2012,07,08,15,38,29.00
2012,07,08,15,39,29.00
2012,07,08,15,40,29.00
2012,07,08,15,41,29.00
2012,07,08,15,42,29.00
2012,07,08,15,43,29.00
2012,07,08,15,44,28.90
2012,07,08,15,45,28.90
2012,07,08,15,46,28.90
2012,07,08,15,47,28.90
2012,07,08,15,48,29.00
2012,07,08,15,49,29.00
2012,07,08,15,50,28.90
2012,07,08,15,51,28.90
2012,07,08,15,52,28.90
2012,07,08,15,53,29.00
2012,07,08,15,54,29.00
2012,07,08,15,55,29.10
2012,07,08,15,56,29.10
2012,07,08,15,57,29.20
2012,07,08,15,58,29.20
2012,07,08,15,59,29.30
2012,07,08,16,00,29.30
2012,07,08,16,01,29.40
2012,07,08,16,02,29.40
2012,07,08,16,03,29.30
2012,07,08,16,04,29.30
2012,07,08,16,05,29.40
2012,07,08,16,06,29.40
2012,07,08,16,07,29.40
2012,07,08,16,08,29.40
2012,07,08,16,09,29.40
2012,07,08,16,10,29.50
2012,07,08,16,11,29.60
2012,07,08,16,12,29.60
2012,07,08,16,13,29.60
2012,07,08,16,14,29.60
2012,07,08,16,15,29.50
2012,07,08,16,16,29.50
2012,07,08,16,17,29.50
2012,07,08,16,18,29.50
2012,07,08,16,19,29.40
2012,07,08,16,20,29.40
2012,07,08,16,21,29.40
2012,07,08,16,22,29.40
2012,07,08,16,23,29.50
2012,07,08,16,24,29.60
2012,07,08,16,25,29.60
2012,07,08,16,26,29.60
2012,07,08,16,27,29.60
2012,07,08,16,28,29.60
2012,07,08,16,29,29.70
2012,07,08,16,30,29.70
2012,07,08,16,31,29.70
2012,07,08,16,32,29.70
2012,07,08,16,33,29.70
2012,07,08,16,34,29.70
2012,07,08,16,35,29.60
2012,07,08,16,36,29.60
2012,07,08,16,37,29.50
2012,07,08,16,38,29.50
2012,07,08,16,39,29.50
2012,07,08,16,40,29.40
2012,07,08,16,41,29.40
2012,07,08,16,42,29.40
2012,07,08,16,43,29.40
2012,07,08,16,44,29.40
2012,07,08,16,45,29.40
2012,07,08,16,46,29.40
2012,07,08,16,47,29.40
2012,07,08,16,48,29.40
2012,07,08,16,49,29.40
2012,07,08,16,50,29.40
2012,07,08,16,51,29.40
2012,07,08,16,52,29.40
2012,07,08,16,53,29.40
2012,07,08,16,54,29.50
2012,07,08,16,55,29.50
2012,07,08,16,56,29.40
2012,07,08,16,57,29.40
2012,07,08,16,58,29.40
2012,07,08,16,59,29.40
2012,07,08,17,00,29.30
2012,07,08,17,01,29.30
2012,07,08,17,02,29.20
2012,07,08,17,03,29.20
2012,07,08,17,04,29.20
2012,07,08,17,05,29.20
2012,07,08,17,06,29.20
2012,07,08,17,07,29.20
2012,07,08,17,08,29.30
2012,07,08,17,09,29.30
2012,07,08,17,10,29.30
2012,07,08,17,11,29.30
2012,07,08,17,12,29.30
2012,07,08,17,13,29.30
2012,07,08,17,14,29.30
2012,07,08,17,15,29.30
2012,07,08,17,16,29.30
2012,07,08,17,17,29.20
2012,07,08,17,18,29.20
2012,07,08,17,19,29.10